FENGYUN 1C DEB, 30148

Orbit data source: Space-Track

FENGYUN 1C DEB, 30148 is space debris in SSO originally from a launch on Mon, 10 May 1999 UTC launched from the Taiyaun Space Center, China (TSC). Fengyun 1C debris stems from the Chinese weather satellite Fengyun-1C, which was intentionally destroyed by a Chinese anti-satellite missile in 2007. This event dramatically increased the amount of space debris, with thousands of trackable fragments posing hazards to satellites and human spaceflight. The Fengyun 1C debris cloud has become a focal point in discussions about space sustainability and the need for international regulations to prevent the creation of new debris.

Loading next visibility...
Identifier
30148, 1999-025TD
Orbit
SSO
Country
Flag of CNCN / PRC
Related business
Manufacturer
Unknown
Mission
Spacecraft
Bus & Motor
Unknown
Mass
Unknown
Launch date (UTC)
1999-05-10 (26 years ago)
Launch vehicle
Unknown
Launch site
Taiyaun Space Center, China (TSC)
Object type
Payload
Rocket body
Debris
Shape & HBR
Unknown shape, 0.1 m
Radar Cross Section
Small (<0.1 m²)

Expand to show TLE details & history
Last TLE update: 2 days ago

TLE from 2 days ago
0 FENGYUN 1C DEB
1 30148U 99025TD  25305.41081965  .00001065  00000-0  86422-3 0  9997
2 30148  99.5441  93.7517 0134020 306.8191 116.5453 13.88358420949436
Epoch: 2025-11-01T09:51Z
TLE epoch observation values (Epoch: 2025-11-01T09:51:34.817Z)
Latitude
63.18755°
Longitude
-114.41081°
Altitude
990.03 km
Speed
7.34 km/s
True Right ascension
04h 57m 42s
True Declination
63° 03' 12"
Sunlit
Object was in full shadow at epoch
Visualization orbit readout
Latitude
Unknown
Longitude
Unknown
Altitude
Unknown
Speed
Unknown
Apparent Right ascension
Unknown
Apparent Declination
Unknown
Sunlit
N/A
Visualization observer readout
Local Sidereal Time
11:49:51
Azimuth
Unknown
Elevation
Unknown
Doppler factor
Unknown
Orbital elements
Apogee altitude
1,029.596 km
Perigee altitude
833.665 km
Semi-major axis
7,309.768 km
Eccentricity
0.0134
Inclination
99.5441°
RAAN
93.7517°
Arg. of periapsis
306.8191°
True anomaly
117.90882°
Mean anomaly
116.5453°
Eccentric anomaly
117.22809°
Mean motion
3.47286 °/min
Orbital period
103.66 mins
BSTAR
0.00086422
Loading maneuver chart data...
Computing Atmospheric mass density...

Documentation

Showing up to 5 results
|